Temperature
10 11 11 11 11 11 11 11 11 11 11 11 11 11 11 11 11 11 11 11 11 11 11 11 11 11 11 11 11 11 11 11 11 11 10 10 10 10 10 10 10 10 10
10 10 10 10 10 10 10 11 11 11 10 10 10 11 11 11 11 11 11 11 11 11 11 11 11 11 11 11 11 11 11 11 10 10 10 10 10 10 10 10 10 10 10
9 9 10 10 10 10 10 10 10 10 10 10 10 10 10 10 11 11 11 11 11 11 11 11 11 11 11 11 11 11 10 10 10 10 10 10 10 10 10 10 9 9 9
9 9 9 9 9 9 9 9 10 10 10 10 10 10 10 10 10 10 10 11 11 11 11 11 11 11 10 10 10 10 10 10 10 10 10 10 9 9 9 9 9 9 9
8 8 9 9 9 9 9 9 9 9 9 9 9 9 9 10 10 10 10 10 10 10 10 10 10 10 10 10 10 10 10 10 10 10 9 9 9 9 9 9 9 9 9
8 8 8 8 8 8 8 9 9 9 9 9 9 9 9 9 9 9 10 10 10 10 10 10 10 10 10 10 10 10 9 9 9 9 9 9 9 9 9 9 9 9 8
7 7 7 8 8 8 8 8 8 8 8 8 8 8 8 9 9 9 9 9 9 10 10 10 10 10 10 10 10 9 9 9 9 9 9 9 9 9 9 8 8 8 8
7 7 7 7 7 7 7 8 8 8 8 8 8 8 8 8 8 9 9 9 9 9 9 9 9 9 9 9 9 9 9 9 9 9 9 8 8 8 8 8 8 8 8
6 6 7 7 7 7 7 7 7 7 7 7 7 7 7 8 7 8 8 9 9 9 9 9 9 9 9 9 9 9 9 9 9 8 8 8 8 8 8 8 8 8 8
5 6 6 6 6 6 7 7 7 7 7 7 7 7 7 8 7 7 8 8 8 8 9 9 9 9 9 9 9 9 9 9 8 8 8 8 8 8 8 7 7 7 7
5 5 5 5 6 6 6 6 6 7 7 7 7 7 7 7 7 7 7 8 8 8 8 8 8 8 8 8 8 8 8 8 8 8 8 8 8 8 7 7 7 7 7
4 4 5 5 5 5 5 6 6 6 6 6 6 7 7 7 7 7 7 7 7 8 8 8 8 8 8 8 8 8 8 8 8 8 8 8 7 7 7 7 7 7 7
3 4 4 4 5 5 5 5 5 5 6 6 6 6 6 6 7 7 7 6 6 7 7 8 8 8 8 8 8 8 8 8 8 8 8 7 7 7 7 7 7 6 6
3 3 4 4 4 4 4 5 5 5 5 5 6 6 6 6 6 6 6 6 6 6 7 7 7 8 7 7 7 7 8 8 7 7 7 7 7 7 7 7 7 6 6
2 3 3 3 4 4 4 4 4 4 5 5 5 5 5 5 5 6 6 6 6 6 6 7 7 7 7 7 7 7 7 7 7 7 7 7 7 7 7 7 6 6 6
2 2 3 3 3 4 4 4 4 4 4 4 4 5 5 5 5 5 5 5 6 6 6 6 7 7 7 7 7 7 7 7 7 7 7 7 7 7 6 6 6 6 6
1 2 2 2 3 3 3 3 3 4 4 4 4 4 4 4 5 5 5 5 5 5 5 6 6 6 6 6 7 7 6 6 6 6 6 7 6 6 6 6 6 6 6
1 1 1 2 2 2 2 3 3 3 3 3 4 4 4 4 4 4 4 5 5 5 5 5 6 6 6 6 6 6 6 6 6 6 6 6 6 6 6 6 6 6 6
0 0 1 1 1 1 2 2 2 3 3 3 3 3 3 3 4 4 4 4 4 5 5 5 5 5 6 6 6 6 5 5 5 5 6 6 6 6 6 6 6 5 5
-1 -0 -0 0 0 1 1 1 2 2 2 2 3 3 3 3 3 4 4 4 4 4 4 4 4 5 5 5 5 5 5 5 5 5 5 5 5 5 5 5 5 5 5
-1 -1 -1 -1 -0 0 0 1 1 1 1 2 2 2 2 3 3 3 3 3 4 4 4 4 4 4 4 4 4 5 4 5 5 5 5 5 5 5 5 5 5 5 5
-2 -2 -2 -1 -1 -1 -1 -0 0 0 0 1 1 1 2 2 2 2 3 3 3 3 3 3 3 3 3 4 4 4 4 4 4 4 4 4 4 4 4 4 4 4 4
-3 -2 -2 -2 -2 -1 -1 -1 -1 -1 -0 0 0 1 1 1 1 2 2 2 2 2 2 2 2 3 3 3 3 3 3 3 4 4 4 4 4 4 4 4 4 4 4
-3 -3 -3 -3 -2 -2 -2 -2 -1 -1 -1 -1 -0 0 0 1 1 1 1 1 1 2 2 2 2 2 2 2 3 3 3 3 3 3 3 3 3 3 3 3 3 3 3
-4 -4 -4 -3 -3 -3 -3 -3 -2 -2 -1 -1 -1 -1 -0 -0 0 0 0 0 1 1 1 1 1 2 2 2 2 2 2 2 2 2 2 2 2 2 3 3 3 3 3
-5 -5 -4 -4 -4 -4 -3 -3 -3 -3 -2 -2 -1 -1 -1 -1 -1 -1 -1 -0 -0 1 1 1 1 1 1 1 1 1 1 1 1 1 2 2 2 2 1 2 2 2 2
Wind_Speed
2 2 2 2 2 3 4 4 4 5 4 5 5 6 5 5 5 5 4 5 6 7 8 9 9 9 10 10 10 10 10 10 10 10 10 10 10 11 11 11 11 11 11
1 1 1 2 1 2 3 4 4 4 3 4 4 5 5 5 5 5 4 4 5 6 7 8 8 8 9 9 10 10 10 9 9 10 10 10 9 9 9 9 10 10 10
1 1 1 1 1 2 4 4 4 4 3 3 3 3 4 4 4 4 4 4 4 4 5 6 7 8 8 9 9 9 9 10 10 10 9 9 9 9 9 9 9 9 9
1 1 0 0 1 2 3 3 3 2 3 3 2 2 2 3 3 4 4 4 4 3 4 5 6 6 7 7 9 10 10 10 10 9 8 9 9 8 8 8 8 8 7
1 1 1 0 1 1 2 3 2 2 3 2 2 2 2 2 2 3 3 3 4 4 4 4 5 5 5 6 8 9 10 10 9 9 8 8 8 7 7 7 7 6 6
1 1 1 1 1 1 2 2 3 2 3 3 3 2 1 1 2 2 2 3 3 4 4 4 4 3 5 5 6 7 9 9 9 9 8 8 7 6 6 6 5 5 5
1 1 1 1 1 1 2 3 3 3 3 3 3 2 1 1 1 1 2 2 2 3 3 4 3 3 4 5 5 6 8 9 9 9 8 7 7 6 5 5 5 4 4
1 0 1 0 0 1 2 3 3 3 2 3 2 3 1 1 1 1 1 2 2 2 2 3 4 4 4 4 4 6 6 7 9 10 9 8 7 6 5 5 5 4 3
1 1 1 1 1 1 2 3 4 3 4 3 2 3 3 3 1 1 1 2 2 1 2 2 3 4 5 4 4 6 6 6 8 9 10 9 8 7 6 5 5 4 4
1 1 0 1 1 1 2 3 3 3 5 4 3 1 1 2 3 1 1 1 2 2 2 2 3 4 5 5 5 6 7 7 7 9 9 9 9 9 8 7 6 5 5
2 2 1 1 1 1 3 3 2 3 4 4 3 2 1 0 1 2 3 2 2 2 2 3 3 4 5 5 6 6 7 8 8 8 9 9 9 9 9 8 7 6 6
2 2 2 2 2 2 3 4 3 3 4 4 3 2 3 3 3 2 3 3 3 2 2 2 3 4 5 6 6 7 8 8 8 8 8 9 9 8 8 9 8 8 7
2 2 3 3 2 2 3 3 4 4 4 5 5 4 3 3 2 2 3 2 2 1 1 2 3 4 5 6 6 7 8 8 8 8 8 8 9 9 9 8 8 8 7
3 3 3 3 3 3 3 3 4 4 4 4 5 5 3 3 2 3 3 3 2 2 2 3 2 5 6 6 7 7 8 9 9 9 9 9 8 8 9 9 8 8 7
3 3 3 3 3 2 2 3 4 5 4 5 5 5 3 3 3 3 3 4 4 4 5 4 3 3 5 7 7 8 7 8 9 9 9 9 9 9 9 9 9 9 8
3 3 3 3 3 3 2 2 3 4 5 5 4 5 4 2 3 3 3 3 3 4 4 3 3 2 4 5 7 8 8 9 9 10 10 10 11 10 10 10 10 10 10
3 3 4 3 3 3 3 3 3 4 5 5 4 5 5 4 4 3 3 3 3 3 4 3 2 2 2 3 4 5 6 7 8 9 10 10 10 11 12 12 12 11 11
3 4 4 4 4 3 3 4 5 4 5 5 5 6 6 4 4 4 4 4 4 3 4 5 3 2 3 3 4 4 4 7 7 8 9 9 10 11 12 12 12 12 12
4 4 4 4 4 4 4 4 5 5 5 5 5 6 6 5 5 4 5 5 4 3 3 4 3 2 2 2 3 3 3 4 5 7 8 9 9 10 10 11 12 13 13
4 4 4 4 4 4 4 5 5 5 5 5 5 5 6 7 7 6 5 5 4 4 3 3 3 3 2 2 3 3 3 3 3 4 6 7 8 9 10 10 11 12 13
4 4 4 4 4 4 4 5 5 5 6 6 5 5 5 6 6 6 5 5 4 4 4 4 4 3 3 2 4 3 4 3 3 3 3 4 5 6 8 9 10 11 12
4 3 4 4 4 4 6 7 6 5 5 6 6 5 5 5 6 7 7 7 6 6 6 5 4 5 5 4 3 3 3 3 4 3 3 4 4 5 6 8 10 11 12
4 4 4 4 4 5 7 8 8 6 5 5 6 5 4 5 5 5 6 7 8 9 8 7 6 7 6 6 6 5 5 5 4 2 3 4 3 5 6 9 10 11 12
4 4 4 4 5 6 8 8 8 5 5 5 5 5 6 5 5 5 5 6 6 6 7 6 7 7 6 6 7 7 6 4 2 2 3 3 3 4 4 7 10 11 11
4 4 5 5 5 6 8 8 7 4 4 5 5 5 5 5 7 7 6 6 6 6 7 7 8 7 8 8 6 4 4 4 4 3 3 2 2 2 3 4 7 10 11
5 5 5 5 5 5 7 7 7 3 4 4 4 5 7 7 8 8 7 6 7 6 4 4 3 4 4 6 8 7 6 5 3 3 3 3 2 1 2 2 3 6 8
Wind_Direction
32 37 53 58 83 105 107 101 104 105 107 111 114 112 103 100 99 95 96 103 119 132 138 138 138 140 140 138 133 129 125 121 118 113 108 103 100 99 95 90 88 85 84
60 48 50 52 73 122 123 121 123 123 122 118 114 115 114 114 108 105 101 106 106 124 136 139 141 141 145 145 141 139 135 130 126 119 113 109 105 104 101 96 93 91 87
89 80 87 42 37 136 125 114 109 113 123 118 119 115 114 115 118 116 114 112 113 119 129 142 147 145 147 152 150 147 142 136 131 124 119 116 111 108 103 100 99 95 91
105 75 129 201 27 133 129 125 124 127 135 134 131 121 110 115 117 125 125 124 124 131 130 136 144 149 152 157 160 156 150 143 138 131 128 125 121 116 109 105 101 98 95
90 88 41 52 82 125 138 143 142 145 146 134 132 122 114 122 127 135 129 132 132 134 136 135 136 146 150 157 163 162 158 152 148 141 136 134 130 125 120 113 106 104 99
46 85 57 54 79 150 152 150 155 142 146 143 129 114 113 140 127 139 149 141 136 137 137 134 139 148 155 154 164 166 162 160 158 153 149 147 143 137 134 124 114 111 106
28 86 79 88 54 193 179 162 154 147 145 139 125 122 68 96 155 159 145 140 131 142 138 139 145 149 163 170 170 168 170 171 172 168 165 160 159 157 154 151 135 126 120
4 71 110 165 177 194 166 164 151 160 173 162 150 154 155 193 178 172 163 168 161 146 146 165 165 164 162 161 175 177 177 183 185 180 176 173 170 172 177 176 165 156 143
331 347 146 162 193 186 192 186 172 170 181 194 169 163 166 196 198 223 190 184 180 168 173 171 178 184 181 173 176 183 183 189 194 192 187 186 186 190 191 187 181 176 173
325 328 325 168 220 205 196 200 197 190 181 191 193 199 184 159 169 193 226 210 200 200 202 199 194 195 194 189 189 188 191 196 204 200 196 198 199 201 200 199 195 194 193
323 318 282 218 240 237 209 203 204 200 192 198 192 186 158 118 157 175 207 218 228 224 216 216 203 199 202 203 200 201 202 204 210 211 207 207 207 207 207 205 206 205 203
303 319 298 262 238 255 227 212 204 207 208 206 203 187 184 180 181 178 202 214 229 236 233 219 209 206 204 207 210 211 205 208 214 217 216 215 210 210 213 213 214 212 210
280 268 294 274 258 263 256 224 211 218 217 206 206 209 204 203 184 185 184 205 231 260 231 235 223 216 210 208 215 215 207 207 213 215 215 216 215 213 214 219 220 216 216
268 276 270 280 283 262 258 238 217 224 228 219 217 208 209 215 196 189 185 180 204 231 229 231 229 217 212 213 218 211 212 213 213 212 216 217 215 214 209 209 216 220 220
286 290 273 268 274 266 256 243 225 221 227 224 220 211 212 220 212 202 192 185 185 211 227 224 213 217 219 219 219 210 214 219 218 215 218 218 215 213 208 209 216 218 217
283 284 274 267 267 261 255 235 237 228 227 229 219 212 217 223 213 214 205 204 199 206 227 225 227 232 216 222 219 211 215 219 222 220 218 217 217 215 213 215 218 219 217
290 278 273 256 252 249 245 235 241 238 233 229 219 214 222 218 211 212 206 205 210 204 228 252 251 233 207 219 219 218 219 216 220 224 222 221 220 220 217 216 219 219 220
291 286 284 260 249 248 247 235 238 246 238 229 222 216 219 216 218 215 210 214 218 215 218 241 249 227 227 220 208 208 219 220 221 226 224 224 224 223 220 219 220 223 224
292 290 289 263 252 247 250 249 241 243 238 234 225 218 216 208 219 222 217 217 220 227 224 227 238 233 235 226 210 209 217 226 228 230 227 225 224 222 221 222 225 226 225
290 285 283 274 262 256 253 247 246 245 237 237 236 224 217 214 218 217 219 219 216 219 221 222 228 222 226 232 207 204 223 228 234 234 230 228 225 222 223 225 225 224 223
296 291 287 285 279 262 254 245 241 242 233 232 238 233 225 226 227 224 227 218 211 216 217 225 225 222 219 210 219 205 219 227 241 222 233 233 225 222 225 228 228 225 221
299 293 284 283 283 278 280 275 265 247 237 233 236 235 231 229 234 239 241 236 227 223 223 227 233 227 227 223 221 212 210 218 243 217 221 240 220 229 228 225 227 226 226
297 292 283 283 278 287 294 288 279 255 239 236 233 232 235 235 232 228 242 245 242 239 231 224 231 233 225 218 214 217 217 223 238 216 212 245 226 236 232 229 227 224 226
298 295 299 294 290 296 303 297 285 265 251 244 236 232 228 228 231 228 228 237 239 238 235 229 229 234 233 218 215 218 221 222 243 218 196 238 239 244 249 236 230 225 226
304 302 300 297 296 299 305 300 287 264 259 253 246 241 237 230 240 236 231 233 240 245 243 243 247 243 236 227 212 200 200 213 239 226 199 215 234 265 260 248 230 226 228
303 300 299 297 292 292 299 300 295 268 266 267 260 248 251 251 246 234 225 225 236 242 234 247 257 250 233 218 209 203 201 209 222 228 199 193 201 207 262 258 234 227 229
Height
1526 1527 1528 1529 1531 1533 1535 1536 1538 1539 1541 1543 1545 1546 1548 1549 1551 1552 1554 1555 1556 1557 1558 1559 1560 1561 1561 1562 1563 1564 1564 1565 1566 1566 1567 1567 1567 1568 1568 1568 1568 1568 1568
1524 1525 1526 1527 1529 1531 1533 1534 1536 1538 1539 1541 1543 1545 1546 1548 1549 1551 1552 1554 1555 1556 1557 1558 1559 1560 1561 1562 1563 1563 1564 1565 1565 1566 1567 1567 1567 1568 1568 1568 1568 1569 1569
1521 1522 1524 1525 1526 1528 1530 1532 1534 1536 1538 1540 1541 1543 1544 1546 1548 1549 1551 1552 1554 1555 1556 1557 1558 1559 1560 1561 1562 1563 1563 1564 1565 1566 1566 1567 1567 1568 1568 1568 1569 1569 1569
1519 1520 1521 1523 1524 1526 1528 1530 1532 1534 1536 1537 1539 1541 1543 1544 1546 1548 1549 1551 1552 1554 1555 1556 1557 1558 1559 1560 1561 1562 1563 1563 1564 1565 1566 1567 1567 1568 1568 1568 1569 1569 1569
1516 1517 1518 1520 1521 1523 1525 1527 1529 1531 1533 1535 1537 1539 1541 1542 1544 1546 1547 1549 1550 1552 1553 1554 1556 1557 1558 1559 1560 1561 1562 1563 1564 1564 1565 1566 1567 1567 1568 1568 1568 1569 1569
1513 1514 1516 1517 1519 1520 1522 1525 1527 1529 1531 1532 1534 1536 1538 1540 1542 1544 1545 1547 1548 1550 1551 1552 1554 1555 1556 1557 1559 1560 1561 1562 1562 1563 1564 1565 1566 1566 1567 1567 1568 1568 1568
1510 1511 1513 1514 1516 1518 1519 1522 1524 1526 1528 1530 1532 1534 1536 1538 1539 1541 1543 1544 1546 1547 1549 1550 1551 1553 1554 1555 1557 1558 1559 1560 1561 1562 1563 1563 1564 1565 1566 1566 1566 1567 1567
1507 1508 1510 1511 1513 1515 1516 1519 1520 1522 1524 1526 1528 1530 1533 1536 1536 1538 1540 1541 1543 1545 1546 1548 1549 1550 1552 1553 1554 1556 1557 1558 1559 1560 1561 1562 1563 1563 1564 1565 1565 1565 1566
1504 1505 1506 1508 1509 1511 1513 1515 1517 1519 1521 1523 1526 1528 1530 1530 1532 1535 1536 1538 1540 1542 1544 1545 1546 1548 1549 1550 1552 1553 1555 1556 1557 1558 1559 1559 1560 1561 1562 1563 1563 1564 1564
1500 1501 1503 1505 1506 1508 1510 1512 1514 1516 1518 1519 1522 1524 1527 1527 1529 1531 1533 1535 1537 1539 1540 1542 1543 1544 1546 1547 1549 1550 1552 1553 1554 1555 1556 1557 1558 1559 1559 1560 1561 1561 1562
1497 1498 1500 1501 1503 1504 1506 1508 1510 1512 1514 1516 1517 1520 1522 1524 1526 1527 1528 1530 1533 1534 1536 1538 1540 1541 1543 1544 1545 1547 1548 1550 1551 1553 1554 1555 1555 1556 1557 1557 1558 1559 1559
1493 1494 1496 1497 1498 1500 1502 1503 1505 1508 1510 1512 1514 1516 1518 1520 1521 1523 1525 1526 1528 1530 1532 1534 1536 1537 1539 1540 1542 1543 1545 1546 1548 1549 1551 1552 1552 1553 1554 1555 1555 1556 1556
1489 1490 1491 1493 1494 1496 1498 1499 1501 1503 1506 1508 1509 1512 1514 1516 1518 1520 1522 1523 1524 1526 1528 1530 1531 1533 1535 1536 1538 1539 1541 1542 1544 1545 1547 1548 1549 1550 1551 1551 1552 1552 1553
1485 1486 1488 1488 1490 1492 1494 1495 1497 1499 1501 1503 1505 1507 1510 1512 1514 1516 1518 1519 1520 1522 1523 1524 1527 1529 1530 1532 1534 1535 1537 1538 1540 1541 1542 1544 1545 1545 1547 1547 1548 1549 1550
1481 1483 1484 1484 1486 1488 1490 1491 1492 1494 1496 1498 1500 1502 1505 1507 1509 1512 1514 1516 1517 1517 1518 1520 1522 1524 1526 1528 1529 1531 1532 1534 1535 1536 1538 1539 1540 1541 1543 1543 1544 1545 1546
1478 1479 1480 1481 1482 1483 1485 1487 1488 1489 1491 1493 1495 1498 1500 1502 1505 1507 1509 1511 1513 1514 1514 1515 1517 1519 1521 1523 1524 1526 1527 1529 1530 1532 1533 1534 1536 1537 1538 1539 1540 1541 1542
1474 1475 1476 1476 1477 1479 1480 1482 1484 1485 1486 1488 1490 1492 1495 1497 1499 1502 1504 1506 1508 1509 1510 1510 1512 1514 1516 1517 1519 1520 1522 1524 1525 1527 1528 1529 1531 1532 1533 1534 1535 1536 1537
1470 1470 1471 1472 1473 1474 1476 1478 1479 1480 1481 1483 1485 1487 1489 1492 1494 1497 1499 1501 1503 1504 1505 1506 1507 1508 1510 1512 1513 1515 1517 1519 1520 1522 1523 1524 1525 1526 1528 1529 1530 1531 1532
1465 1466 1466 1467 1468 1469 1471 1472 1474 1475 1477 1478 1480 1483 1484 1487 1489 1492 1494 1496 1498 1499 1501 1501 1502 1503 1505 1507 1508 1509 1511 1513 1515 1516 1518 1519 1520 1521 1522 1523 1524 1525 1526
1460 1461 1461 1462 1463 1464 1466 1467 1468 1470 1472 1473 1475 1477 1479 1481 1484 1486 1488 1490 1492 1494 1495 1496 1497 1498 1499 1501 1503 1504 1505 1507 1509 1511 1512 1513 1515 1516 1517 1518 1519 1520 1521
1456 1456 1456 1457 1458 1459 1460 1461 1463 1464 1466 1468 1470 1472 1474 1476 1478 1481 1482 1484 1486 1488 1490 1491 1492 1493 1494 1496 1497 1498 1500 1502 1503 1505 1506 1507 1509 1509 1511 1512 1513 1514 1515
1451 1452 1452 1452 1453 1454 1455 1456 1458 1459 1461 1462 1464 1466 1468 1470 1472 1475 1477 1479 1481 1483 1484 1485 1486 1487 1489 1491 1492 1493 1495 1496 1497 1500 1500 1501 1503 1503 1505 1506 1507 1508 1509
1447 1447 1448 1448 1448 1449 1450 1451 1452 1454 1455 1456 1458 1460 1462 1464 1467 1468 1470 1473 1475 1477 1478 1480 1481 1482 1484 1486 1488 1489 1490 1491 1492 1494 1495 1495 1497 1497 1499 1500 1501 1502 1503
1442 1442 1442 1443 1443 1443 1444 1445 1446 1448 1449 1451 1452 1454 1456 1458 1460 1462 1464 1466 1468 1470 1472 1474 1476 1478 1480 1482 1483 1484 1485 1486 1487 1488 1490 1490 1491 1492 1493 1494 1495 1496 1497
1438 1438 1438 1439 1438 1438 1440 1440 1442 1442 1444 1445 1446 1448 1450 1451 1454 1456 1458 1459 1461 1463 1466 1468 1470 1472 1474 1476 1477 1479 1479 1480 1480 1481 1483 1484 1484 1486 1487 1488 1489 1490 1491
1435 1435 1435 1435 1434 1434 1435 1435 1437 1437 1438 1439 1440 1442 1444 1446 1448 1450 1452 1453 1455 1457 1459 1461 1463 1465 1467 1469 1470 1472 1473 1474 1474 1475 1477 1478 1479 1480 1480 1481 1483 1484 1484